Weather History for Hattiesburg, MS

Change the Weather History Date:

Tuesday, January 14, 2014

  Actual Average Record
Temperature  
Mean Temperature 52 °F 48 °F  
Max Temperature 65 °F 60 °F 79 °F (1972)
Min Temperature 38 °F 37 °F 17 °F (1964)
Degree Days  
Heating Degree Days 13 17  
Month to date heating degree days 297 231  
Since 1 July heating degree days 1118 1016  
Cooling Degree Days 0 0  
Month to date cooling degree days 0 0  
Year to date cooling degree days 0 0  
Growing Degree Days 2 (Base 50)    
Moisture  
Dew Point 39 °F    
Average Humidity 62    
Maximum Humidity 96    
Minimum Humidity 28    
Precipitation  
Precipitation T in 0.16 in 2.57 in (1977)
Month to date precipitation 2.23 2.51  
Year to date precipitation 2.23 2.51  
Sea Level Pressure  
Sea Level Pressure 30.06 in    
Wind  
Wind Speed 3 mph (WNW)    
Max Wind Speed 12 mph    
Max Gust Speed 28 mph    
Visibility 9 miles    
Events Rain    
T = Trace of Precipitation, MM = Missing Value Source: NWS Daily Summary

Daily Weather History Graph

Daily Weather History Graph

Search for Another Location

Airport:

Trip Planner

Search our weather history database for the weather conditions in past years. The results will help you decide how hot, cold, wet, or windy it might be!

Date:

Astronomy

Jan. 14, 2014 Rise Set
Actual Time 6:56 AM CST 5:16 PM CST
Civil Twilight 6:30 AM CST 5:42 PM CST
Nautical Twilight 6:00 AM CST 6:12 PM CST
Astronomical Twilight 5:31 AM CST 6:41 PM CST
Moon 4:19 PM CST (1/14) 5:32 AM CST (1/14)
Length of Visible Light 11h 12m
Length of Day
10h 19m
Waxing Gibbous, 98% of the Moon is Illuminated
Jan 14
Waxing Gibbous
Jan 15
Full
Jan 23
Last Quarter
Jan 30
New
Feb 6
First Quarter

Hourly Weather History & Observations

Time (CST) Temp. Windchill Dew Point Humidity Pressure Visibility Wind Dir Wind Speed Gust Speed Precip Events Conditions
12:53 AM 54.0 °F - 48.9 °F 83% 29.98 in 10.0 mi WNW 10.4 mph - 0.00 in Rain Light Rain
1:53 AM 52.0 °F - 46.9 °F 83% 29.99 in 10.0 mi WNW 9.2 mph - 0.00 in Rain Light Rain
2:53 AM 50.0 °F - 45.0 °F 83% 30.01 in 10.0 mi NW 8.1 mph - 0.00 in Rain Light Rain
3:53 AM 46.9 °F - 43.0 °F 86% 30.01 in 10.0 mi NW 5.8 mph - 0.00 in   Clear
4:53 AM 43.0 °F 40.3 °F 41.0 °F 93% 30.02 in 10.0 mi West 4.6 mph - N/A   Clear
5:53 AM 42.1 °F 40.2 °F 39.9 °F 92% 30.04 in 10.0 mi WNW 3.5 mph - N/A   Clear
6:53 AM 39.9 °F - 37.9 °F 93% 30.07 in 10.0 mi Calm Calm - N/A   Clear
7:15 AM 39.9 °F - 37.9 °F 93% 30.08 in 2.0 mi Calm Calm - N/A   Clear
7:24 AM 41.0 °F - 37.9 °F 89% 30.07 in 3.0 mi Calm Calm - N/A   Clear
7:53 AM 42.1 °F - 41.0 °F 96% 30.09 in 10.0 mi Calm Calm - N/A   Clear
8:53 AM 50.0 °F - 42.1 °F 74% 30.11 in 10.0 mi NW 4.6 mph - N/A   Clear
9:53 AM 53.1 °F - 41.0 °F 64% 30.11 in 10.0 mi Calm Calm - N/A   Clear
10:53 AM 57.0 °F - 41.0 °F 55% 30.10 in 10.0 mi Calm Calm - N/A   Clear
11:53 AM 60.1 °F - 36.0 °F 41% 30.07 in 10.0 mi North - - N/A   Clear
12:53 PM 62.1 °F - 34.0 °F 35% 30.05 in 10.0 mi West 8.1 mph - N/A   Clear
1:53 PM 63.0 °F - 32.0 °F 31% 30.04 in 10.0 mi West 6.9 mph - N/A   Clear
2:53 PM 64.0 °F - 30.0 °F 28% 30.04 in 10.0 mi WNW 4.6 mph - N/A   Clear
3:53 PM 63.0 °F - 32.0 °F 31% 30.05 in 10.0 mi Calm Calm - N/A   Clear
4:53 PM 61.0 °F - 34.0 °F 36% 30.05 in 10.0 mi SW 3.5 mph - N/A   Clear
5:53 PM 51.1 °F - 39.0 °F 63% 30.07 in 10.0 mi Calm Calm - N/A   Clear
6:53 PM 46.9 °F - 39.9 °F 77% 30.08 in 10.0 mi Calm Calm - N/A   Clear
7:53 PM 43.0 °F - 39.0 °F 86% 30.10 in 10.0 mi Calm Calm - N/A   Clear
8:53 PM 42.1 °F - 37.9 °F 85% 30.11 in 10.0 mi Calm Calm - N/A   Clear
9:53 PM 39.9 °F - 37.0 °F 89% 30.10 in 10.0 mi Calm Calm - N/A   Clear
10:53 PM 39.9 °F - 37.0 °F 89% 30.09 in 10.0 mi Calm Calm - N/A   Clear
11:53 PM 37.9 °F - 35.1 °F 89% 30.07 in 10.0 mi Calm Calm - N/A   Clear